Weather History for KLBB - October, 2013

Change the Weather History Date:

Friday, October 18, 2013

  Actual Average Record
Temperature  
Mean Temperature 51 °F 61 °F  
Max Temperature 66 °F 75 °F 90 °F (2001)
Min Temperature 35 °F 47 °F 32 °F (1968)
Degree Days  
Heating Degree Days 14 5  
Month to date heating degree days 72 66  
Since 1 July heating degree days 76 89  
Cooling Degree Days 0 1  
Month to date cooling degree days 68 43  
Year to date cooling degree days 2112 1792  
Growing Degree Days 2 (Base 50)    
Moisture  
Dew Point 45 °F    
Average Humidity 65    
Maximum Humidity 93    
Minimum Humidity 37    
Precipitation  
Precipitation 0.00 in 0.07 in 1.24 in (1983)
Month to date precipitation 1.11 1.23  
Year to date precipitation 11.43 16.81  
Snow  
Snow 0.00 in 0.00 in 0.00 in (2002)
Month to date snowfall 0.0 0.0  
Since 1 July snowfall 0.0 0.0  
Since 1 September snowfall 0.0 0.0  
Snow Depth 0.00 in    
Sea Level Pressure  
Sea Level Pressure 29.96 in    
Wind  
Wind Speed 14 mph (NNW)    
Max Wind Speed 30 mph    
Max Gust Speed 39 mph    
Visibility 10 miles    
Events      
T = Trace of Precipitation, MM = Missing Value Source: NWS Daily Summary

Daily Weather History Graph

Daily Weather History Graph

Search for Another Location

Airport or City:

Trip Planner

Search our weather history database for the weather conditions in past years. The results will help you decide how hot, cold, wet, or windy it might be!

Date:

Astronomy

Oct. 18, 2013 Rise Set
Actual Time 7:54 AM CDT 7:09 PM CDT
Civil Twilight 7:29 AM CDT 7:34 PM CDT
Nautical Twilight 7:00 AM CDT 8:03 PM CDT
Astronomical Twilight 6:31 AM CDT 8:32 PM CDT
Moon 7:01 PM CDT (10/18) 7:32 AM CDT (10/18)
Length of Visible Light 12h 05m
Length of Day
11h 14m
Full, 100% of the Moon is Illuminated
Oct 18
Full
Oct 18
Full
Oct 26
Last Quarter
Nov 3
New
Nov 9
First Quarter

Hourly Weather History & Observations

Time (CDT) Temp. Windchill Dew Point Humidity Pressure Visibility Wind Dir Wind Speed Gust Speed Precip Events Conditions
12:53 AM 55.9 °F - 53.1 °F 90% 29.85 in 10.0 mi SSE 9.2 mph - N/A   Clear
1:53 AM 53.1 °F - 51.1 °F 93% 29.85 in 10.0 mi SE 6.9 mph - N/A   Clear
2:06 AM 53.6 °F - 51.8 °F 94% 29.94 in 10.0 mi SE 6.9 mph - N/A   Partly Cloudy
2:18 AM 51.8 °F - 51.8 °F 100% 29.94 in 10.0 mi SE 5.8 mph - N/A   Mostly Cloudy
2:22 AM 51.8 °F - 51.8 °F 100% 29.94 in 10.0 mi SE 5.8 mph - N/A   Mostly Cloudy
2:32 AM 53.6 °F - 51.8 °F 94% 29.94 in 10.0 mi SE 6.9 mph - N/A   Mostly Cloudy
2:53 AM 54.0 °F - 52.0 °F 93% 29.85 in 10.0 mi SSE 9.2 mph - N/A   Overcast
3:53 AM 55.9 °F - 54.0 °F 93% 29.84 in 8.0 mi South 6.9 mph - N/A   Overcast
4:53 AM 57.9 °F - 55.0 °F 90% 29.83 in 10.0 mi SSW 15.0 mph 18.4 mph N/A   Overcast
5:40 AM 59.0 °F - 55.4 °F 88% 29.92 in 10.0 mi SSW 9.2 mph - N/A   Overcast
5:53 AM 59.0 °F - 55.0 °F 87% 29.82 in 10.0 mi SW 11.5 mph - N/A   Overcast
6:53 AM 59.0 °F - 55.0 °F 87% 29.83 in 10.0 mi SW 8.1 mph - N/A   Overcast
7:53 AM 57.9 °F - 53.1 °F 84% 29.84 in 10.0 mi SW 12.7 mph - N/A   Overcast
8:53 AM 57.9 °F - 52.0 °F 81% 29.86 in 10.0 mi WSW 11.5 mph - N/A   Mostly Cloudy
9:53 AM 57.9 °F - 51.1 °F 78% 29.88 in 10.0 mi WSW 13.8 mph - N/A   Mostly Cloudy
10:42 AM 60.8 °F - 51.8 °F 72% 29.96 in 10.0 mi West 11.5 mph - N/A   Scattered Clouds
10:53 AM 62.1 °F - 52.0 °F 70% 29.88 in 10.0 mi West 13.8 mph - N/A   Scattered Clouds
11:53 AM 64.9 °F - 48.9 °F 56% 29.88 in 10.0 mi NW 12.7 mph - N/A   Partly Cloudy
12:53 PM 64.9 °F - 39.0 °F 39% 29.88 in 10.0 mi NNW 17.3 mph 27.6 mph N/A   Partly Cloudy
1:53 PM 66.0 °F - 39.0 °F 37% 29.88 in 10.0 mi North 23.0 mph 28.8 mph N/A   Partly Cloudy
2:53 PM 61.0 °F - 43.0 °F 52% 29.91 in 10.0 mi North 19.6 mph 31.1 mph N/A   Scattered Clouds
3:08 PM 57.2 °F - 42.8 °F 59% 30.01 in 8.0 mi North 24.2 mph 34.5 mph N/A   Mostly Cloudy
3:53 PM 48.9 °F - 39.0 °F 69% 29.99 in 10.0 mi North 23.0 mph 33.4 mph N/A   Overcast
4:53 PM 46.0 °F 38.0 °F 36.0 °F 68% 30.04 in 10.0 mi North 21.9 mph 34.5 mph N/A   Overcast
5:10 PM 46.4 °F 37.9 °F 35.6 °F 66% 30.10 in 10.0 mi North 25.3 mph 39.1 mph N/A   Overcast
5:53 PM 46.0 °F 37.6 °F 34.0 °F 63% 30.06 in 10.0 mi NNE 24.2 mph 33.4 mph N/A   Mostly Cloudy
6:27 PM 44.6 °F 35.7 °F 33.8 °F 66% 30.13 in 10.0 mi NNE 24.2 mph 33.4 mph N/A   Mostly Cloudy
6:48 PM 44.6 °F 36.4 °F 33.8 °F 66% 30.13 in 10.0 mi NNE 20.7 mph 28.8 mph N/A   Scattered Clouds
6:53 PM 45.0 °F 36.6 °F 34.0 °F 65% 30.08 in 10.0 mi NNE 21.9 mph 28.8 mph N/A   Scattered Clouds
7:53 PM 42.1 °F 33.6 °F 33.1 °F 70% 30.11 in 10.0 mi NNE 18.4 mph 31.1 mph N/A   Partly Cloudy
8:53 PM 39.9 °F 33.4 °F 33.1 °F 77% 30.16 in 10.0 mi NNE 10.4 mph - N/A   Clear
9:53 PM 39.0 °F 34.0 °F 33.1 °F 79% 30.18 in 10.0 mi NNE 6.9 mph - N/A   Clear
10:53 PM 37.0 °F - 33.1 °F 86% 30.19 in 10.0 mi Calm Calm - N/A   Clear
11:53 PM 36.0 °F 32.1 °F 32.0 °F 86% 30.19 in 10.0 mi NNW 4.6 mph - N/A   Clear